Regional Weather Roundup
Issued by NWS

Home | Current Version | Previous Version | Graphics & Text | Print | Product List | Glossary On
Versions: 1 2 3 4 5 6 7 8 9 10 11 12 13 14 15 16 17 18 19 20 21 22 23 24 25 26 27 28 29 30 31 32 33 34 35 36 37 38 39 40 41 42 43 44 45 46 47 48 49 50
000
ASUS43 KLOT 201206
RWRIL

ILLINOIS REGIONAL WEATHER ROUNDUP
NATIONAL WEATHER SERVICE CHICAGO/ROMEOVILLE IL
700 AM CDT SUN APR 20 2014

NOTE: "FAIR" INDICATES FEW OR NO CLOUDS BELOW 12,000 FEET WITH NO
SIGNIFICANT WEATHER AND/OR OBSTRUCTIONS TO VISIBILITY.

* THESE STATIONS ARE NOT UNDER NWS QUALITY CONTROL. THEY ALSO MAY NOT
  REPORT WEATHER SUCH AS PRECIPITATION OR FOG.

ILZ001-002-007-009-015-016-024-201300-
NORTHWEST ILLINOIS

CITY           SKY/WX    TMP DP  RH WIND       PRES   REMARKS
MOLINE         CLEAR     51  37  58 S7        30.14F
6HR MIN TEMP:  48; 6HR MAX TEMP:  56;

STERLING*      PTCLDY    48  37  66 SE7       30.18S
SAVANNA*       MOCLDY    48  39  69 SE5       30.16S
$$

ILZ003-004-008-010-011-017-018-201300-
NORTH CENTRAL ILLINOIS

CITY           SKY/WX    TMP DP  RH WIND       PRES   REMARKS
ROCKFORD       MOCLDY    48  36  63 S15       30.21S
6HR MIN TEMP:  47; 6HR MAX TEMP:  50;

FREEPORT*      MOCLDY    51  41  67 S14       30.18F
ROCHELLE*      MOCLDY    44  37  76 SE7       30.21S
DE KALB*       MOCLDY    40  33  76 S9        30.22R
$$

ILZ005-006-012>014-019>023-201300-
NORTHEAST ILLINOIS

CITY           SKY/WX    TMP DP  RH WIND       PRES   REMARKS
CHICAGO-OHARE  MOCLDY    45  30  55 S8        30.23R
6HR MIN TEMP:  41; 6HR MAX TEMP:  53;

CHICAGO-MIDWAY MOCLDY    47  27  45 S5        30.24R
6HR MIN TEMP:  47; 6HR MAX TEMP:  55;

AURORA         PTCLDY    43  33  68 SE6       30.23R
6HR MIN TEMP:  41; 6HR MAX TEMP:  53;

LANSING*       PTCLDY    44  29  54 S5        30.25R
WAUKEGAN       PTCLDY    45  36  70 S8        30.21R
6HR MIN TEMP:  38; 6HR MAX TEMP:  50;

DUPAGE AIRPORT PTCLDY    45  30  55 S8        30.23R
6HR MIN TEMP:  39; 6HR MAX TEMP:  53;

KANKAKEE*      PTCLDY    42  33  70 E6        30.26R
WHEELING       PTCLDY    47  31  53 S7        30.24R
6HR MIN TEMP:  40; 6HR MAX TEMP:  49;

MORRIS*        CLEAR     42  32  67 CALM      30.23R
NORTHERLY ISL    N/A     48  27  44 S8          N/A
$$

LMZ740>746-201300-
SOUTHERN LAKE MICHIGAN

STATION/POSITION SKY/WX   TEMP    WIND        PRES    VSBY  WAVE
                          AIR SEA DIR/SP/G                  HT/PER
                          (F)     (DEG/KT/KT) (MB)    (MI)  (FT/S)
WAUKEGAN HARBOR            44     170/ 10/ 11 1024.4F
HARRISON CRIB              47     180/ 15/ 17   N/A
BURNHAM HARBOR             48     200/  9       N/A
CALUMET HARBOR             47     170/  8/ 11 1024.6R
MICHIGAN CITY              46     130/ 13/ 17   N/A
$$

ILZ025>027-034>036-040-047-049-050-058-095>099-201300-
WEST-CENTRAL ILLINOIS

CITY           SKY/WX    TMP DP  RH WIND       PRES   REMARKS
QUINCY         MOCLDY    56  40  55 S6        30.15F
GALESBURG*     CLEAR     52  39  62 SE7       30.16F
MACOMB*        CLEAR     48  39  73 SE6       30.19S
JACKSONVILLE*  MOCLDY    54  38  55 SE6       30.20R
PITTSFIELD*    MOCLDY    55  40  56 SE5       30.18S
$$

ILZ028>032-037-038-041>044-048-051>054-059>061-201300-
CENTRAL ILLINOIS

CITY           SKY/WX    TMP DP  RH WIND       PRES   REMARKS
PONTIAC        PTCLDY    45  39  81 SE7       30.23R
BLOOMINGTON    PTCLDY    47  36  65 S13       30.23R
DECATUR        MOCLDY    44  39  82 SE5       30.23R
PEORIA         PTCLDY    51  38  60 SE7       30.20S
6HR MIN TEMP:  51; 6HR MAX TEMP:  58;

LACON*         CLEAR     48  38  70 SE6       30.19F
LINCOLN*       MOCLDY    46  39  77 CALM      30.22S
SPRINGFIELD    MOCLDY    54  39  57 S10       30.21R
6HR MIN TEMP:  51; 6HR MAX TEMP:  57;

TAYLORVILLE    MOCLDY    50  37  62 SE8       30.22R
$$

ILZ033-039-045-046-055>057-062-063-201300-
EAST-CENTRAL ILLINOIS

CITY           SKY/WX    TMP DP  RH WIND       PRES   REMARKS
CHAMPAIGN      MOCLDY    45  39  79 E6        30.24R
RANTOUL*       MOCLDY    46  38  71 CALM      30.25R
MATTOON        PTCLDY    51  39  63 SE8       30.22S
PARIS*         PTCLDY    48  38  66 SE3       30.26R
$$

ILZ079-100>102-201300-
SOUTHWEST ILLINOIS

CITY           SKY/WX    TMP DP  RH WIND       PRES   REMARKS
ALTON          CLEAR     45  43  93 E7        30.21S
BELLEVILLE     PTCLDY    46  45  95 CALM      30.21R
CAHOKIA*       CLEAR     46  43  89 S3        30.21R
SPARTA*        PTCLDY    46  41  81 CALM      30.22S
$$

ILZ064>066-069>071-074>076-080>082-084>086-088>090-092>094-201300-
SOUTH-CENTRAL ILLINOIS

CITY           SKY/WX    TMP DP  RH WIND       PRES   REMARKS
CARBONDALE     PTCLDY    45  44  97 CALM      30.22R FOG
6HR MIN TEMP:  44; 6HR MAX TEMP:  51;

CAIRO*         CLEAR     50  45  84 CALM      30.22R
MARION         PTCLDY    46  43  87 SE6       30.23R
MT. VERNON     CLEAR     46  36  66 NE3       30.23R
CENTRALIA*       N/A     53  38  58 CALM      30.23R
SALEM*         CLEAR     53  41  62 E3        30.23R
METROPOLIS*    CLEAR     47  43  85 CALM      30.21R
$$

ILZ067-068-072-073-078-083-087-091-201300-
SOUTHEAST ILLINOIS

CITY           SKY/WX    TMP DP  RH WIND       PRES   REMARKS
FAIRFIELD*     CLEAR     52  43  71 CALM      30.23R
HARRISBURG*    CLEAR     47  44  86 CALM      30.24R
ROBINSON*      CLEAR     46  44  93 CALM      30.26R
CARMI*         CLEAR     47  46  93 CALM      30.23R
$$

ABBREVIATIONS USED IN REMARKS
   TC - TEMPERATURE IN CELSIUS
  WCI - WIND CHILL INDEX
   HX - HEAT INDEX
  VSB - VISIBILITY
$$




USA.gov is the U.S. government's official web portal to all federal, state and local government web resources and services.